[[{"header":{"parameterUnit":"m.s-1","parameterCategory":1,"la1":30.2991,"la2":30.254,"lo1":-89.0895,"lo2":-89.0444,"dy":0.0017,"dx":0.0017,"nx":28,"ny":28,"refTime":"2024-10-21T03:00:00:Z","depth":0,"parameterNumber":2,"parameterNumberName":"U-component_of_WINDS"},"data":[0,0,0,0,0,0,0,0,0,0,0,0,0,0,0,0,0,0,0,0,0,0,0,0,0,0,0,0,0,0,0,0,0,0,0,0,0,0,0,0,0,0,0,0,0,0,0,0,0,0,0,0,0,0,0,0,0,0,-2.7037,-2.7038,0,-2.7107,-2.7108,-2.7109,-2.7007,-2.7003,-2.7,-2.6996,-2.707,-2.7075,-2.708,0,0,0,0,0,0,0,0,0,0,0,0,0,-2.6815,-2.682,-2.7037,-2.7038,-2.7039,-2.7107,-2.7108,-2.7109,-2.7008,-2.7003,-2.6999,-2.6995,-2.7068,-2.7074,-2.7081,0,0,0,0,0,0,0,0,0,0,0,0,0,-2.6901,-2.6821,-2.7037,-2.6996,-2.6993,-2.7107,-2.7108,-2.7109,-2.7008,-2.7003,-2.6998,-2.6993,-2.7066,-2.7074,-2.7082,-2.7239,0,0,-2.7106,-2.7109,0,0,0,0,0,0,0,0,-2.6896,-2.6909,-2.7001,-2.6999,-2.6996,-2.7043,-2.7057,-2.7153,-2.701,-2.7003,-2.6996,-2.699,-2.7065,-2.7073,-2.7098,-2.7242,-2.7245,-2.7107,-2.7112,-2.7115,-2.7117,0,0,0,0,0,0,0,-2.6891,-2.6906,-2.7065,-2.7003,-2.7,-2.6975,-2.6981,-2.7074,-2.7063,-2.7003,-2.6996,-2.7005,-2.7063,-2.7091,-2.7099,-2.7246,-2.7106,-2.7114,-2.7118,-2.7122,-2.7523,-2.7528,0,0,0,0,0,0,-2.6889,-2.6902,-2.7062,-2.7067,-2.6932,-2.6983,-2.699,-2.7033,-2.7062,-2.7061,-2.701,-2.7,-2.708,-2.709,-2.7101,-2.7288,-2.7115,-2.7122,-2.7127,-2.7517,-2.7524,-2.753,0,0,0,0,0,0,-2.6885,-2.6905,-2.7059,-2.6982,-2.7,-2.6993,-2.7042,-2.7037,-2.7065,-2.7067,-2.7065,-2.704,-2.7076,-2.709,-2.7205,-2.7289,-2.7126,-2.7133,-2.751,-2.7519,-2.7527,-2.7662,0,0,0,0,0,0,-2.6879,-2.6904,-2.6963,-2.6984,-2.7004,-2.7163,-2.7047,-2.7043,-2.7079,-2.7067,-2.7095,-2.7095,-2.7073,-2.7194,-2.7213,-2.7297,-2.7139,-2.7502,-2.7514,-2.7524,-2.765,-2.7674,-2.7695,0,0,0,0,0,-2.6872,-2.6999,-2.6967,-2.6987,-2.7079,-2.7168,-2.7179,-2.7151,-2.7086,-2.7146,-2.7147,-2.7094,-2.7276,-2.7206,-2.7227,-2.7315,-2.7497,-2.7511,-2.7524,-2.764,-2.7669,-2.7694,0,0,0,0,0,0,-2.6989,-2.7001,-2.6966,-2.7103,-2.7135,-2.715,-2.7225,-2.7183,-2.7234,-2.7221,-2.7184,-2.7191,-2.7315,-2.7325,-2.7248,-2.7468,-2.7376,-2.7394,-2.7457,-2.7485,-2.7507,-2.7503,-2.7146,0,0,0,0,0,-2.703,-2.7101,-2.7108,-2.7228,-2.7246,-2.7233,-2.7271,-2.7246,-2.7278,-2.7291,-2.73,-2.7334,-2.7398,-2.7442,-2.7501,-2.765,-2.7655,-2.772,-2.7742,-2.7761,-2.7778,-2.7858,-2.7887,-2.7574,-2.7574,-2.7573,0,0,-2.7117,-2.7133,-2.718,-2.7252,-2.7274,-2.7349,-2.7245,-2.7329,-2.7384,-2.7303,-2.7413,-2.7421,-2.7456,-2.7589,-2.7648,-2.7602,-2.7865,-2.7778,-2.7792,-2.7799,-2.7874,-2.7904,-2.793,-2.7583,-2.7581,-2.758,0,0,-2.7315,-2.7333,-2.7436,-2.746,-2.7493,-2.7484,-2.7508,-2.753,-2.7532,-2.7641,-2.7583,-2.7647,-2.7759,-2.7787,-2.7815,-2.8022,-2.7975,-2.8042,-2.816,-2.8238,-2.8263,-2.8285,-2.836,-2.8387,-2.8058,-2.8058,-2.8058,0,-2.7419,-2.7529,-2.7494,-2.7582,-2.7616,-2.7545,-2.765,-2.7674,-2.7726,-2.7752,-2.7699,-2.7838,-2.7856,-2.7994,-2.8045,-2.8069,-2.8097,-2.804,-2.8262,-2.8284,-2.8303,-2.8375,-2.8403,-2.8066,-2.8065,-2.8065,-2.8064,0,-2.7656,-2.7733,-2.7812,-2.7864,-2.7906,-2.8002,-2.7982,-2.8029,-2.8,-2.7996,-2.8108,-2.8127,-2.8189,-2.8219,-2.8192,-2.8355,-2.8325,-2.8268,-2.8175,-2.8342,-2.8408,-2.8435,-2.8078,-2.8075,-2.8073,-2.8071,0,0,-2.7931,-2.7961,-2.7991,-2.8014,-2.8046,-2.8105,-2.8197,-2.8257,-2.8299,-2.8336,-2.8413,-2.8509,-2.8456,-2.8489,-2.8463,-2.8532,-2.8696,-2.8466,-2.8466,-2.851,-2.8877,-2.8921,-2.8953,-2.8664,-2.8669,-2.8673,-2.8874,0,-2.8129,-2.8289,-2.8259,-2.8415,-2.8486,-2.8419,-2.8499,-2.8528,-2.8526,-2.8586,-2.8583,-2.8653,-2.8577,-2.8596,-2.8661,-2.8662,-2.8769,-2.8647,-2.8736,-2.874,-2.8732,-2.8987,-2.9034,-2.9224,-2.89,-2.8904,-2.8907,0,-2.8382,-2.8429,-2.8592,-2.8612,-2.864,-2.8713,-2.8766,-2.8824,-2.8854,-2.8848,-2.8884,-2.8846,-2.8938,-2.8842,-2.8968,-2.8886,-2.892,-2.8926,-2.8933,-2.8942,-2.8835,-2.9005,-2.9283,-2.9313,-2.8947,-2.8944,-2.8941,0,-2.8569,-2.8672,-2.8783,-2.8804,-2.883,-2.8883,-2.8896,-2.8921,-2.8959,-2.9005,-2.9029,-2.9086,-2.9117,-2.9162,-2.914,-2.9071,-2.9271,-2.9172,-2.9269,-2.927,-2.9316,-2.9314,-2.9606,-2.9335,-2.9335,-2.9334,-2.9334,0,-2.8794,-2.8897,-2.8867,-2.8935,-2.9048,-2.9013,-2.9125,-2.913,-2.9153,-2.9222,-2.9167,-2.9232,-2.9198,-2.9261,-2.9244,-2.9352,-2.9366,-2.9364,-2.9359,-2.9371,-2.9371,-2.9394,-2.9381,-2.9342,-2.934,-2.9339,-2.9337,0,-2.9023,-2.9007,-2.9123,-2.9138,-2.9144,-2.9226,-2.9239,-2.9303,-2.9296,-2.9383,-2.9401,-2.9391,-2.9462,-2.9444,-2.9522,-2.951,-2.9647,-2.9624,-2.9637,-2.9632,-2.973,-2.9722,-3.0049,-3.0091,-2.9792,-2.9794,-2.9797,0,-2.9169,-2.9246,-2.9269,-2.931,-2.9328,-2.9395,-2.9434,-2.9402,-2.9444,-2.9484,-2.9543,-2.9609,-2.9661,-2.9777,-2.9777,-2.9836,-2.9815,-2.9926,-2.9824,-2.9833,-2.9819,-2.9815,-2.9823,-2.9947,-2.995,-2.9953,-2.9955,0,-2.9431,-2.9418,-2.9476,-2.9531,-2.9578,-2.9619,-2.9656,-2.9693,-2.9663,-2.9714,-2.9785,-2.9825,-2.9904,-2.997,-3.0024,-3.0038,-2.9993,-2.9987,-3.0013,-3.0026,-3.0031,-3.0031,-2.9694,-2.998,-2.9978,-2.9976,-2.9974,-2.9973,-2.9623,-2.9689,-2.9715,-2.9781,-2.9804,-2.984,-2.99,-2.9901,-2.996,-3.0021,-2.9998,-3.0081,-3.0109,-3.0176,-3.0197,-3.0261,-3.0219,-3.0256,-3.0266,-3.0276,-3.0289,-3.0019,-3.027,-3.0269,-3.0269,-3.0268,-3.0268,0,-2.9883,-2.9896,-2.9957,-3.001,-3.0061,-3.0012,-3.005,-3.0097,-3.017,-3.0199,-3.025,-3.0333,-3.0397,-3.0401,-3.0461,-3.0512,-3.0493,-3.0529,-3.0526,-3.053,-3.0322,-3.0295,-3.0544,-3.0543,-3.0543,-3.0543,-3.0543,-3.0543,-3.0025,-3.0134,-3.0125,-3.0244,-3.0256,-3.0337,-3.0362,-3.0395,-3.0418,-3.0512,-3.0565,-3.0567,-3.0586,-3.0647,-3.0704,-3.0703,-3.0729,-3.0774,-3.0766,-3.0572,-3.0545,-3.0518,-3.0492,-3.0779,-3.0779,-3.0968,-3.097,-3.0971]},{"header":{"parameterUnit":"m.s-1","parameterCategory":1,"la1":30.2991,"la2":30.254,"lo1":-89.0895,"lo2":-89.0444,"dy":0.0017,"dx":0.0017,"nx":28,"ny":28,"refTime":"2024-10-21T03:00:00:Z","depth":0,"parameterNumber":3,"parameterNumberName":"V-component_of_WINDS"},"data":[0,0,0,0,0,0,0,0,0,0,0,0,0,0,0,0,0,0,0,0,0,0,0,0,0,0,0,0,0,0,0,0,0,0,0,0,0,0,0,0,0,0,0,0,0,0,0,0,0,0,0,0,0,0,0,0,0,0,-2.3462,-2.3462,0,-2.3479,-2.3479,-2.348,-2.3466,-2.3465,-2.3464,-2.3464,-2.348,-2.3481,-2.3482,0,0,0,0,0,0,0,0,0,0,0,0,0,-2.3414,-2.3415,-2.3462,-2.3462,-2.3462,-2.3479,-2.3479,-2.348,-2.3466,-2.3465,-2.3464,-2.3464,-2.3479,-2.3481,-2.3482,0,0,0,0,0,0,0,0,0,0,0,0,0,-2.3433,-2.3415,-2.3462,-2.3457,-2.3457,-2.3479,-2.3479,-2.348,-2.3466,-2.3465,-2.3464,-2.3463,-2.3479,-2.3481,-2.3482,-2.3509,0,0,-2.3486,-2.3487,0,0,0,0,0,0,0,0,-2.3432,-2.3435,-2.3458,-2.3458,-2.3458,-2.3469,-2.3468,-2.3489,-2.3466,-2.3462,-2.3464,-2.3463,-2.3477,-2.3479,-2.3484,-2.351,-2.351,-2.3487,-2.3487,-2.3488,-2.3489,0,0,0,0,0,0,0,-2.3431,-2.3434,-2.3469,-2.3458,-2.3458,-2.3454,-2.3455,-2.3472,-2.3474,-2.3463,-2.3462,-2.3464,-2.3477,-2.3482,-2.3484,-2.351,-2.3487,-2.3488,-2.3489,-2.3489,-2.3557,-2.3558,0,0,0,0,0,0,-2.343,-2.3433,-2.3468,-2.3469,-2.3443,-2.3455,-2.3457,-2.3466,-2.3474,-2.3475,-2.3465,-2.3463,-2.348,-2.3482,-2.3484,-2.3515,-2.3488,-2.3489,-2.349,-2.3556,-2.3557,-2.3558,0,0,0,0,0,0,-2.343,-2.3434,-2.3467,-2.3451,-2.3455,-2.3457,-2.3467,-2.3467,-2.3473,-2.3476,-2.3476,-2.347,-2.348,-2.3482,-2.3503,-2.3515,-2.349,-2.3491,-2.3555,-2.3557,-2.3558,-2.3577,0,0,0,0,0,0,-2.3428,-2.3434,-2.3444,-2.3451,-2.3456,-2.3486,-2.3468,-2.3468,-2.3476,-2.3474,-2.3481,-2.3481,-2.3479,-2.35,-2.3504,-2.3517,-2.3493,-2.3554,-2.3556,-2.3558,-2.3575,-2.3579,-2.3582,0,0,0,0,0,-2.3427,-2.3449,-2.3445,-2.3449,-2.347,-2.3487,-2.3489,-2.3487,-2.3477,-2.3487,-2.3489,-2.3481,-2.3514,-2.3503,-2.3507,-2.352,-2.3553,-2.3555,-2.3557,-2.3574,-2.3578,-2.3582,0,0,0,0,0,0,-2.3443,-2.345,-2.3446,-2.3471,-2.3479,-2.3484,-2.3498,-2.3492,-2.3502,-2.35,-2.3496,-2.3498,-2.3518,-2.3521,-2.3509,-2.3545,-2.3532,-2.3535,-2.3543,-2.3547,-2.355,-2.3549,-2.3494,0,0,0,0,0,-2.345,-2.3464,-2.3469,-2.3491,-2.3495,-2.3496,-2.3503,-2.35,-2.3508,-2.3511,-2.3514,-2.3521,-2.3532,-2.354,-2.3551,-2.3576,-2.3576,-2.3587,-2.359,-2.3593,-2.3595,-2.3607,-2.3612,-2.3565,-2.3565,-2.3565,0,0,-2.3464,-2.3469,-2.3478,-2.3494,-2.35,-2.3513,-2.3498,-2.3514,-2.3523,-2.3513,-2.3532,-2.3534,-2.3542,-2.3564,-2.3574,-2.3567,-2.3608,-2.3596,-2.3598,-2.3599,-2.361,-2.3614,-2.3618,-2.3567,-2.3566,-2.3566,0,0,-2.3496,-2.3502,-2.352,-2.3526,-2.3534,-2.3534,-2.3539,-2.3545,-2.3547,-2.3566,-2.3558,-2.3569,-2.3589,-2.3594,-2.36,-2.3632,-2.3625,-2.3636,-2.3653,-2.3665,-2.3669,-2.3672,-2.3682,-2.3686,-2.3639,-2.3639,-2.3639,0,-2.3512,-2.3533,-2.353,-2.3546,-2.3552,-2.3544,-2.3561,-2.3567,-2.3578,-2.3583,-2.3575,-2.36,-2.3604,-2.3627,-2.3634,-2.364,-2.3643,-2.3635,-2.3668,-2.3672,-2.3675,-2.3684,-2.3688,-2.364,-2.364,-2.364,-2.3639,0,-2.3551,-2.3565,-2.3579,-2.359,-2.3598,-2.3615,-2.3614,-2.3623,-2.3619,-2.362,-2.3639,-2.3644,-2.3655,-2.366,-2.3657,-2.3682,-2.3677,-2.3669,-2.3655,-2.368,-2.3689,-2.3693,-2.3642,-2.3641,-2.3641,-2.364,0,0,-2.3594,-2.3603,-2.3608,-2.3612,-2.362,-2.3631,-2.3647,-2.3658,-2.3664,-2.3673,-2.3685,-2.3702,-2.3694,-2.37,-2.3697,-2.3708,-2.3731,-2.3698,-2.3698,-2.3703,-2.3757,-2.3762,-2.3767,-2.3727,-2.3728,-2.3728,-2.3756,0,-2.3625,-2.3652,-2.365,-2.3676,-2.3688,-2.368,-2.3693,-2.3699,-2.37,-2.371,-2.3711,-2.3723,-2.3712,-2.3716,-2.3726,-2.3726,-2.3742,-2.3725,-2.3737,-2.3738,-2.3734,-2.3772,-2.3777,-2.3804,-2.376,-2.3761,-2.3761,0,-2.3665,-2.3674,-2.3701,-2.3706,-2.3711,-2.3723,-2.3732,-2.3743,-2.3749,-2.3749,-2.3755,-2.375,-2.3765,-2.3751,-2.377,-2.3758,-2.3763,-2.3765,-2.3765,-2.3766,-2.375,-2.3772,-2.3812,-2.3815,-2.3767,-2.3766,-2.3766,0,-2.3691,-2.3711,-2.3729,-2.3733,-2.374,-2.3748,-2.3751,-2.3757,-2.3763,-2.3771,-2.3775,-2.3785,-2.3789,-2.3797,-2.3794,-2.3785,-2.3813,-2.38,-2.3813,-2.3813,-2.3818,-2.3818,-2.3859,-2.3824,-2.3824,-2.3824,-2.3823,0,-2.3726,-2.3742,-2.3741,-2.3752,-2.3769,-2.3766,-2.3784,-2.3786,-2.379,-2.3801,-2.3794,-2.3804,-2.3801,-2.381,-2.3809,-2.3824,-2.3827,-2.3826,-2.3825,-2.3826,-2.3826,-2.3828,-2.3826,-2.3825,-2.3824,-2.3824,-2.3824,0,-2.3758,-2.3758,-2.3777,-2.3782,-2.3783,-2.3796,-2.3799,-2.3809,-2.3809,-2.3823,-2.3826,-2.3826,-2.3836,-2.3835,-2.3847,-2.3846,-2.3864,-2.3862,-2.3862,-2.3861,-2.3874,-2.3872,-2.3917,-2.3922,-2.3885,-2.3885,-2.3885,0,-2.3779,-2.3792,-2.3798,-2.3804,-2.3808,-2.3819,-2.3825,-2.3822,-2.3829,-2.3836,-2.3845,-2.3855,-2.3863,-2.388,-2.3881,-2.389,-2.3887,-2.3902,-2.3888,-2.3888,-2.3885,-2.3884,-2.3884,-2.3904,-2.3904,-2.3905,-2.3905,0,-2.3817,-2.3816,-2.3825,-2.3834,-2.3842,-2.3849,-2.3856,-2.3861,-2.3859,-2.3867,-2.3878,-2.3884,-2.3896,-2.3905,-2.3913,-2.3916,-2.391,-2.391,-2.3913,-2.3913,-2.3912,-2.3911,-2.3868,-2.3908,-2.3908,-2.3908,-2.3908,-2.3907,-2.3843,-2.3853,-2.3858,-2.3869,-2.3873,-2.3879,-2.3888,-2.3889,-2.3898,-2.3908,-2.3906,-2.3918,-2.3922,-2.3932,-2.3936,-2.3944,-2.3939,-2.3944,-2.3945,-2.3946,-2.3946,-2.3912,-2.3946,-2.3946,-2.3946,-2.3946,-2.3946,0,-2.3879,-2.3881,-2.3891,-2.39,-2.3908,-2.3902,-2.3908,-2.3915,-2.3926,-2.3931,-2.3939,-2.395,-2.3959,-2.3961,-2.3969,-2.3976,-2.3973,-2.3978,-2.3977,-2.3977,-2.3952,-2.3948,-2.398,-2.398,-2.398,-2.398,-2.398,-2.398,-2.3898,-2.3914,-2.3914,-2.3931,-2.3934,-2.3945,-2.3949,-2.3954,-2.3958,-2.3971,-2.3979,-2.398,-2.3983,-2.3992,-2.3999,-2.4,-2.4002,-2.4008,-2.4007,-2.3983,-2.3979,-2.3976,-2.3972,-2.4009,-2.4009,-2.4031,-2.4032,-2.4032]}]]